Tracking 19634 objects as of 22-May-2019
HD Live streaming from Space Station
objects crossing your sky now

THORAD AGENA D DEB


THORAD AGENA D DEB is no longer on orbit


NORAD ID: 4853
Int'l Code: 1970-025EH
Perigee: N/A
Apogee: N/A
Inclination: N/A
Period: N/A
Semi major axis: N/A
RCS: N/A
Launch date: April 8, 1970
Source: United States (US)
Launch site: AIR FORCE WESTERN TEST RANGE (AFWTR)
Decay date: 2019-01-31

Note: This is SATELLITE DEBRIS
aabbcc
Your satellite tracking list
Your tracking list is empty




NASA's NSSDC Master Catalog

Two Line Element Set (TLE):
1  4853U 70025EH  19030.58154080  .09235613  38411-5  42765-2 0  9995
2  4853  99.6229 349.8581 0013369 155.1854 205.0074 16.21535811522008
Source of the keplerian elements: AFSPC